User: anonymous   Login
Location: Waldport
(44.4270°N, 124.0680°W)
Time: 13:39:07
(UTC-07:00)
Language:

Cosmos 1570 Rocket - Orbit

View from above orbital plane
View from above orbital plane
View from above satellite
View from above satellite

Ground track
Ground track

The orbit data is extracted from the following two-line orbital elements,

1 15032U 84056B   14296.91439766  .00000458  00000-0  17158-3 0  5225
2 15032 074.0736 044.1380 0016381 089.3955 049.9618 14.34432544588213
Epoch (UTC): 23 October 2014 21:56:43
Eccentricity: 0.0016381
inclination: 74.0736°
perigee height: 765 km
apogee height: 788 km
right ascension of ascending node: 44.1380°
argument of perigee: 89.3955°
revolutions per day: 14.34432544
mean anomaly at epoch: 49.9618°
orbit number at epoch: 58821

The dashed part of the orbit path shows where the satellite is in the earth's shadow,  

DLR